Tracking 20037 objects as of 20-Nov-2019
Live streaming from Space Station
objects crossing your sky now

ZHEDA PIXING 1C

Track ZHEDA PIXING 1C now!
10-day predictions
ZHEDA PIXING 1C is classified as:


NORAD ID: 37167
Int'l Code: 2010-047C
Perigee: 618.5 km
Apogee: 649.7 km
Inclination: 97.7 °
Period: 97.2 minutes
Semi major axis: 7005 km
RCS: 0.149 m2 (medium)
Launch date: September 22, 2010
Source: People's Republic of China (PRC)
Launch site: Jiuquan Satellite Launch Center, China (JSC)
aabbcc
Your satellite tracking list
Your tracking list is empty




NASA's NSSDC Master Catalog

Two Line Element Set (TLE):
1 37167U 10047C   19324.51034895  .00000103  00000-0  19875-4 0  9998
2 37167  97.6886 314.8897 0022286 219.1748 140.7846 14.80742002494681
Source of the keplerian elements: AFSPC